| time (UTC) | temp F | wind direction | speed MPH | gust MPH | rain 1hr in | rain 24hr in | rain mn in | humidity % | barometer mb |
| 20260508133020 | 49 | 129 | 3.0 | 8.0 | 0.00 | 1.49 | 0.00 | 84 | 1003.1 |
| 20260508132513 | 49 | 114 | 5.0 | 8.0 | 0.00 | 1.49 | 0.00 | 82 | 1003.2 |
| 20260508132021 | 50 | 129 | 5.0 | 7.0 | 0.00 | 1.49 | 0.00 | 81 | 1003.2 |
| 20260508131520 | 52 | 127 | 4.0 | 7.0 | 0.00 | 1.49 | 0.00 | 80 | 1003.2 |
| 20260508131013 | 52 | 116 | 4.0 | 7.0 | 0.00 | 1.49 | 0.00 | 80 | 1003.2 |
| 20260508130521 | 53 | 89 | 3.0 | 5.0 | 0.00 | 1.49 | 0.00 | 81 | 1003.2 |
| 20260508130019 | 53 | 129 | 3.0 | 4.0 | 0.00 | 1.49 | 0.00 | 80 | 1003.2 |
| 20260508125514 | 52 | 146 | 2.0 | 3.0 | 0.00 | 1.56 | 0.00 | 81 | 1003.2 |
| 20260508125021 | 52 | 108 | 1.0 | 3.0 | 0.00 | 1.56 | 0.00 | 81 | 1003.1 |
| 20260508124519 | 52 | 134 | 2.0 | 3.0 | 0.00 | 1.56 | 0.00 | 81 | 1003.1 |
| 20260508124024 | 51 | 110 | 1.0 | 2.0 | 0.00 | 1.56 | 0.00 | 82 | 1003.2 |
| 20260508123531 | 51 | 115 | 1.0 | 4.0 | 0.00 | 1.56 | 0.00 | 82 | 1003.2 |
| 20260508123020 | 50 | 145 | 2.0 | 3.0 | 0.00 | 1.56 | 0.00 | 83 | 1003.3 |
| 20260508122513 | 50 | 52 | 2.0 | 3.0 | 0.00 | 1.56 | 0.00 | 81 | 1003.2 |
| 20260508122021 | 51 | 81 | 0.0 | 3.0 | 0.00 | 1.56 | 0.00 | 84 | 1003.2 |
| 20260508121520 | 49 | 120 | 1.0 | 4.0 | 0.00 | 1.56 | 0.00 | 83 | 1003.3 |
| 20260508121013 | 49 | 117 | 2.0 | 4.0 | 0.00 | 1.56 | 0.00 | 83 | 1003.4 |
| 20260508120520 | 49 | 101 | 3.0 | 4.0 | 0.00 | 1.56 | 0.00 | 83 | 1003.3 |
| 20260508120020 | 48 | 126 | 2.0 | 4.0 | 0.00 | 1.56 | 0.00 | 83 | 1003.3 |
| 20260508115513 | 49 | 105 | 2.0 | 4.0 | 0.00 | 1.58 | 0.00 | 83 | 1003.4 |
| 20260508115020 | 49 | 112 | 3.0 | 5.0 | 0.00 | 1.58 | 0.00 | 82 | 1003.4 |
| 20260508114520 | 48 | 109 | 2.0 | 6.0 | 0.00 | 1.58 | 0.00 | 83 | 1003.4 |
| 20260508114013 | 49 | 131 | 3.0 | 4.0 | 0.00 | 1.58 | 0.00 | 81 | 1003.4 |
| 20260508113532 | 49 | 65 | 1.0 | 2.0 | 0.00 | 1.58 | 0.00 | 82 | 1003.3 |
| 20260508113020 | 48 | 120 | 1.0 | 5.0 | 0.00 | 1.58 | 0.00 | 84 | 1003.4 |
| 20260508112524 | 47 | 110 | 3.0 | 5.0 | 0.00 | 1.58 | 0.00 | 83 | 1003.4 |
| 20260508112020 | 47 | 119 | 3.0 | 5.0 | 0.00 | 1.58 | 0.00 | 83 | 1003.5 |
| 20260508111520 | 48 | 106 | 3.0 | 5.0 | 0.00 | 1.58 | 0.00 | 83 | 1003.5 |
| 20260508111013 | 49 | 59 | 2.0 | 4.0 | 0.00 | 1.58 | 0.00 | 84 | 1003.6 |
| 20260508110521 | 49 | 81 | 2.0 | 6.0 | 0.00 | 1.58 | 0.00 | 83 | 1003.5 |
| 20260508110020 | 48 | 61 | 2.0 | 6.0 | 0.00 | 1.58 | 0.00 | 84 | 1003.5 |
| 20260508105513 | 48 | 11 | 2.0 | 7.0 | 0.00 | 1.59 | 0.00 | 85 | 1003.4 |
| 20260508105020 | 47 | 72 | 4.0 | 7.0 | 0.00 | 1.59 | 0.00 | 85 | 1003.5 |
| 20260508104521 | 47 | 80 | 2.0 | 4.0 | 0.00 | 1.59 | 0.00 | 86 | 1003.3 |
| 20260508104014 | 47 | 32 | 2.0 | 5.0 | 0.00 | 1.59 | 0.00 | 87 | 1003.1 |
| 20260508103521 | 46 | 71 | 2.0 | 5.0 | 0.00 | 1.59 | 0.00 | 86 | 1003.0 |
| 20260508103020 | 47 | 131 | 2.0 | 3.0 | 0.00 | 1.59 | 0.00 | 87 | 1002.9 |
| 20260508102513 | 46 | 110 | 1.0 | 2.0 | 0.00 | 1.59 | 0.00 | 87 | 1002.9 |
| 20260508102031 | 45 | 21 | 1.0 | 3.0 | 0.00 | 1.59 | 0.00 | 87 | 1002.9 |
| 20260508101523 | 45 | 77 | 2.0 | 3.0 | 0.00 | 1.59 | 0.00 | 88 | 1003.0 |
| 20260508101013 | 45 | 110 | 2.0 | 3.0 | 0.00 | 1.59 | 0.00 | 88 | 1003.0 |
| 20260508100521 | 44 | 46 | 0.0 | 1.0 | 0.00 | 1.59 | 0.00 | 90 | 1002.9 |
| 20260508100019 | 44 | 46 | 0.0 | 3.0 | 0.00 | 1.59 | 0.00 | 89 | 1002.8 |
| 20260508095513 | 44 | 347 | 0.0 | 3.0 | 0.00 | 1.63 | 0.00 | 89 | 1002.6 |
| 20260508095020 | 44 | 341 | 2.0 | 4.0 | 0.00 | 1.63 | 0.00 | 89 | 1002.4 |
| 20260508094520 | 44 | 16 | 2.0 | 4.0 | 0.00 | 1.63 | 0.00 | 90 | 1002.4 |
| 20260508094024 | 44 | 307 | 3.0 | 4.0 | 0.00 | 1.63 | 0.00 | 90 | 1002.6 |
| 20260508093521 | 44 | 302 | 2.0 | 3.0 | 0.00 | 1.63 | 0.00 | 90 | 1002.7 |
| 20260508093021 | 44 | 311 | 0.0 | 4.0 | 0.00 | 1.63 | 0.00 | 89 | 1002.5 |
| 20260508092513 | 44 | 46 | 1.0 | 4.0 | 0.00 | 1.63 | 0.00 | 89 | 1002.7 |
| 20260508092022 | 44 | 328 | 2.0 | 4.0 | 0.00 | 1.63 | 0.00 | 89 | 1002.7 |
| 20260508091520 | 44 | 309 | 2.0 | 3.0 | 0.00 | 1.63 | 0.00 | 90 | 1002.9 |
| 20260508091024 | 44 | 276 | 1.0 | 3.0 | 0.00 | 1.63 | 0.00 | 89 | 1002.8 |
| 20260508090520 | 44 | 125 | 2.0 | 4.0 | 0.00 | 1.63 | 0.00 | 89 | 1002.8 |
| 20260508090020 | 44 | 86 | 2.0 | 9.0 | 0.00 | 1.63 | 0.00 | 88 | 1002.7 |
| 20260508085519 | 44 | 17 | 3.0 | 10.0 | 0.00 | 1.64 | 0.00 | 88 | 1002.5 |
| 20260508085021 | 44 | 305 | 6.0 | 10.0 | 0.00 | 1.64 | 0.00 | 89 | 1002.4 |
| 20260508084520 | 44 | 308 | 6.0 | 10.0 | 0.00 | 1.64 | 0.00 | 89 | 1002.2 |
| 20260508084014 | 44 | 310 | 5.0 | 12.0 | 0.00 | 1.64 | 0.00 | 89 | 1002.2 |
| 20260508083532 | 44 | 310 | 6.0 | 13.0 | 0.00 | 1.64 | 0.00 | 88 | 1002.2 |
| 20260508083021 | 44 | 309 | 8.0 | 13.0 | 0.00 | 1.64 | 0.00 | 89 | 1002.4 |
| 20260508082513 | 44 | 305 | 6.0 | 11.0 | 0.00 | 1.64 | 0.00 | 89 | 1002.7 |
| 20260508082032 | 44 | 305 | 6.0 | 11.0 | 0.00 | 1.64 | 0.00 | 89 | 1002.4 |
| 20260508081519 | 44 | 335 | 6.0 | 11.0 | 0.00 | 1.64 | 0.00 | 89 | 1002.2 |
| 20260508081014 | 45 | 1 | 6.0 | 10.0 | 0.00 | 1.64 | 0.00 | 89 | 1002.7 |
| 20260508080521 | 44 | 308 | 5.0 | 8.0 | 0.00 | 1.64 | 0.00 | 89 | 1002.7 |
| 20260508080020 | 44 | 302 | 4.0 | 9.0 | 0.00 | 1.64 | 0.00 | 89 | 1002.7 |
| 20260508075513 | 44 | 331 | 5.0 | 9.0 | 0.00 | 1.64 | 0.00 | 89 | 1002.3 |
| 20260508075021 | 44 | 322 | 4.0 | 10.0 | 0.00 | 1.64 | 0.00 | 89 | 1002.7 |
| 20260508074524 | 44 | 23 | 5.0 | 10.0 | 0.00 | 1.64 | 0.00 | 89 | 1002.4 |
| 20260508074014 | 44 | 330 | 4.0 | 8.0 | 0.00 | 1.64 | 0.00 | 89 | 1002.4 |
| 20260508073533 | 44 | 331 | 4.0 | 7.0 | 0.00 | 1.64 | 0.00 | 89 | 1002.6 |
| 20260508073020 | 44 | 316 | 4.0 | 8.0 | 0.00 | 1.64 | 0.00 | 90 | 1002.8 |
| 20260508072514 | 44 | 349 | 4.0 | 9.0 | 0.00 | 1.64 | 0.00 | 90 | 1002.8 |
| 20260508072021 | 44 | 303 | 4.0 | 9.0 | 0.00 | 1.64 | 0.00 | 91 | 1002.7 |
| 20260508071519 | 44 | 297 | 4.0 | 7.0 | 0.00 | 1.64 | 0.00 | 90 | 1002.6 |
| 20260508071014 | 44 | 317 | 4.0 | 9.0 | 0.00 | 1.64 | 0.00 | 90 | 1002.3 |
| 20260508070522 | 45 | 308 | 5.0 | 9.0 | 0.00 | 1.64 | 0.00 | 90 | 1002.1 |
| 20260508070020 | 45 | 306 | 5.0 | 8.0 | 0.00 | 1.64 | 0.00 | 90 | 1002.3 |
| 20260508065525 | 45 | 284 | 4.0 | 7.0 | 0.00 | 1.64 | 0.00 | 90 | 1002.4 |
| 20260508065032 | 45 | 293 | 4.0 | 8.0 | 0.00 | 1.64 | 0.00 | 90 | 1002.4 |
| 20260508064521 | 45 | 323 | 5.0 | 8.0 | 0.00 | 1.64 | 0.00 | 90 | 1002.4 |
| 20260508064014 | 45 | 344 | 5.0 | 8.0 | 0.00 | 1.64 | 0.00 | 90 | 1002.4 |
| 20260508063521 | 45 | 332 | 5.0 | 8.0 | 0.00 | 1.64 | 0.00 | 91 | 1002.5 |
| 20260508063018 | 45 | 347 | 4.0 | 7.0 | 0.00 | 1.64 | 0.00 | 91 | 1002.6 |
| 20260508062514 | 45 | 339 | 4.0 | 7.0 | 0.00 | 1.64 | 0.00 | 91 | 1002.6 |
| 20260508062021 | 45 | 311 | 3.0 | 9.0 | 0.00 | 1.64 | 0.00 | 91 | 1002.6 |
| 20260508061519 | 45 | 298 | 4.0 | 9.0 | 0.00 | 1.64 | 0.00 | 91 | 1002.6 |
| 20260508061014 | 45 | 314 | 3.0 | 8.0 | 0.00 | 1.64 | 0.00 | 92 | 1002.8 |
| 20260508060521 | 45 | 319 | 4.0 | 7.0 | 0.00 | 1.64 | 0.00 | 92 | 1002.7 |
| 20260508060029 | 44 | 318 | 4.0 | 7.0 | 0.00 | 1.64 | 0.00 | 92 | 1002.8 |
| 20260508055514 | 44 | 316 | 3.0 | 5.0 | 0.00 | 1.64 | 0.00 | 92 | 1002.7 |
| 20260508055032 | 45 | 300 | 2.0 | 6.0 | 0.00 | 1.64 | 0.00 | 92 | 1002.9 |
| 20260508054520 | 45 | 326 | 4.0 | 6.0 | 0.00 | 1.64 | 0.00 | 92 | 1002.8 |
| 20260508054014 | 45 | 326 | 3.0 | 7.0 | 0.00 | 1.64 | 0.00 | 92 | 1002.9 |
| 20260508053521 | 45 | 341 | 3.0 | 7.0 | 0.00 | 1.64 | 0.00 | 92 | 1002.9 |
| 20260508053019 | 45 | 335 | 3.0 | 7.0 | 0.00 | 1.64 | 0.00 | 92 | 1002.8 |
| 20260508052514 | 45 | 327 | 4.0 | 8.0 | 0.00 | 1.64 | 0.00 | 92 | 1002.8 |
| 20260508052033 | 45 | 309 | 5.0 | 8.0 | 0.00 | 1.64 | 0.00 | 92 | 1002.8 |
| 20260508051519 | 45 | 311 | 4.0 | 7.0 | 0.00 | 1.64 | 0.00 | 92 | 1003.2 |
| 20260508051014 | 45 | 298 | 4.0 | 7.0 | 0.00 | 1.64 | 0.00 | 92 | 1003.0 |
| 20260508050533 | 45 | 319 | 3.0 | 7.0 | 0.00 | 1.64 | 0.00 | 92 | 1003.1 |
| 20260508050029 | 45 | 306 | 3.0 | 6.0 | 0.00 | 1.64 | 0.00 | 92 | 1003.1 |
| 20260508045515 | 45 | 309 | 3.0 | 6.0 | 0.00 | 1.64 | 0.00 | 92 | 1003.2 |
| 20260508045023 | 46 | 307 | 3.0 | 6.0 | 0.00 | 1.64 | 0.00 | 92 | 1003.1 |
| 20260508044523 | 46 | 282 | 3.0 | 6.0 | 0.00 | 1.64 | 0.00 | 93 | 1003.4 |
| 20260508044014 | 46 | 345 | 3.0 | 6.0 | 0.00 | 1.64 | 0.00 | 93 | 1003.2 |
| 20260508043533 | 46 | 316 | 3.0 | 7.0 | 0.00 | 1.64 | 0.00 | 93 | 1003.4 |
| 20260508043029 | 46 | 319 | 3.0 | 7.0 | 0.00 | 1.64 | 0.00 | 93 | 1003.4 |
| 20260508042514 | 46 | 287 | 2.0 | 7.0 | 0.00 | 1.64 | 0.00 | 94 | 1003.5 |
| 20260508042021 | 46 | 331 | 3.0 | 7.0 | 0.00 | 1.64 | 0.00 | 94 | 1003.4 |
| 20260508041519 | 46 | 311 | 3.0 | 7.0 | 0.00 | 1.64 | 0.00 | 94 | 1003.3 |
| 20260508041014 | 46 | 340 | 3.0 | 7.0 | 0.00 | 1.64 | 0.00 | 95 | 1003.3 |
| 20260508040526 | 46 | 304 | 3.0 | 6.0 | 0.00 | 1.64 | 0.00 | 95 | 1003.2 |
| 20260508040019 | 46 | 323 | 2.0 | 4.0 | 0.00 | 1.64 | 0.00 | 95 | 1003.1 |
| 20260508035514 | 46 | 319 | 2.0 | 4.0 | 0.00 | 1.64 | 0.00 | 95 | 1003.2 |
| 20260508035021 | 46 | 314 | 2.0 | 5.0 | 0.00 | 1.64 | 0.00 | 95 | 1003.2 |
| 20260508034529 | 46 | 328 | 2.0 | 5.0 | 0.00 | 1.64 | 0.00 | 95 | 1003.3 |
| 20260508034019 | 46 | 309 | 3.0 | 6.0 | 0.00 | 1.64 | 0.00 | 95 | 1003.3 |
| 20260508033521 | 46 | 315 | 3.0 | 6.0 | 0.00 | 1.64 | 0.00 | 95 | 1003.4 |
| 20260508033019 | 46 | 323 | 3.0 | 5.0 | 0.00 | 1.64 | 0.00 | 95 | 1003.5 |
| 20260508032525 | 46 | 292 | 2.0 | 5.0 | 0.00 | 1.64 | 0.00 | 95 | 1003.6 |
| 20260508032021 | 45 | 311 | 2.0 | 5.0 | 0.00 | 1.64 | 0.00 | 95 | 1003.5 |
| 20260508031519 | 44 | 290 | 1.0 | 3.0 | 0.00 | 1.64 | 0.00 | 95 | 1003.6 |
| 20260508031014 | 44 | 266 | 1.0 | 1.0 | 0.00 | 1.64 | 0.00 | 95 | 1003.6 |
| 20260508030522 | 44 | 264 | 1.0 | 2.0 | 0.00 | 1.64 | 0.00 | 95 | 1003.5 |
| 20260508030030 | 44 | 278 | 1.0 | 2.0 | 0.00 | 1.64 | 0.00 | 95 | 1003.5 |
| 20260508025514 | 44 | 278 | 1.0 | 2.0 | 0.00 | 1.64 | 1.64 | 95 | 1003.6 |
| 20260508025021 | 44 | 269 | 1.0 | 2.0 | 0.00 | 1.64 | 1.64 | 95 | 1003.6 |
| 20260508024518 | 44 | 274 | 0.0 | 1.0 | 0.00 | 1.64 | 1.64 | 95 | 1003.4 |
| 20260508024025 | 44 | 274 | 0.0 | 1.0 | 0.00 | 1.64 | 1.64 | 95 | 1003.7 |
| 20260508023522 | 44 | 274 | 1.0 | 1.0 | 0.00 | 1.64 | 1.64 | 95 | 1003.6 |
| 20260508023018 | 44 | 274 | 0.0 | 1.0 | 0.00 | 1.64 | 1.64 | 95 | 1003.6 |
| 20260508022514 | 44 | 274 | 0.0 | 1.0 | 0.00 | 1.64 | 1.64 | 95 | 1003.6 |
| 20260508022021 | 44 | 274 | 1.0 | 2.0 | 0.00 | 1.64 | 1.64 | 95 | 1003.5 |
| 20260508021524 | 43 | 274 | 1.0 | 1.0 | 0.00 | 1.64 | 1.64 | 95 | 1003.3 |
| 20260508021014 | 44 | 273 | 1.0 | 2.0 | 0.00 | 1.64 | 1.64 | 95 | 1003.4 |
| 20260508020521 | 44 | 275 | 1.0 | 2.0 | 0.00 | 1.64 | 1.64 | 95 | 1003.5 |
| 20260508020029 | 44 | 275 | 1.0 | 2.0 | 0.00 | 1.64 | 1.64 | 95 | 1003.5 |
| 20260508015515 | 44 | 276 | 1.0 | 2.0 | 0.00 | 1.64 | 1.64 | 95 | 1003.4 |
| 20260508015021 | 43 | 276 | 1.0 | 2.0 | 0.00 | 1.64 | 1.64 | 95 | 1003.5 |
| 20260508014518 | 43 | 271 | 1.0 | 2.0 | 0.00 | 1.64 | 1.64 | 95 | 1003.5 |
| 20260508014014 | 44 | 274 | 1.0 | 2.0 | 0.00 | 1.64 | 1.64 | 95 | 1003.6 |
| 20260508013522 | 44 | 266 | 1.0 | 2.0 | 0.00 | 1.64 | 1.64 | 95 | 1003.7 |
| 20260508013018 | 44 | 264 | 1.0 | 2.0 | 0.00 | 1.64 | 1.64 | 95 | 1003.7 |
| 20260508012514 | 44 | 276 | 1.0 | 1.0 | 0.00 | 1.64 | 1.64 | 95 | 1003.7 |
| 20260508012021 | 44 | 269 | 0.0 | 1.0 | 0.00 | 1.64 | 1.64 | 95 | 1003.7 |
| 20260508011519 | 44 | 269 | 0.0 | 1.0 | 0.00 | 1.64 | 1.64 | 95 | 1003.6 |
| 20260508011026 | 44 | 264 | 0.0 | 1.0 | 0.00 | 1.64 | 1.64 | 95 | 1003.8 |
| 20260508010522 | 44 | 263 | 1.0 | 1.0 | 0.00 | 1.64 | 1.64 | 95 | 1003.9 |
| 20260508010018 | 44 | 250 | 0.0 | 1.0 | 0.00 | 1.64 | 1.64 | 95 | 1003.9 |
| 20260508005514 | 44 | 243 | 1.0 | 1.0 | 0.00 | 1.64 | 1.64 | 95 | 1003.7 |
| 20260508005021 | 44 | 233 | 1.0 | 1.0 | 0.00 | 1.64 | 1.64 | 95 | 1003.8 |
| 20260508004518 | 44 | 233 | 0.0 | 1.0 | 0.00 | 1.64 | 1.64 | 95 | 1003.9 |
| 20260508004015 | 44 | 233 | 0.0 | 3.0 | 0.00 | 1.64 | 1.64 | 95 | 1003.8 |
| 20260508002025 | 43 | 224 | 1.0 | 2.0 | 0.00 | 1.64 | 1.64 | 95 | 1003.4 |
| 20260508001022 | 43 | 328 | 0.0 | 0.0 | 0.00 | 1.64 | 1.64 | 95 | 1003.3 |
| 20260508000520 | 43 | 328 | 0.0 | 0.0 | 0.00 | 1.64 | 1.64 | 95 | 1003.0 |
| 20260508000025 | 43 | 328 | 0.0 | 1.0 | 0.00 | 1.64 | 1.64 | 95 | 1003.0 |
| 20260507235523 | 43 | 328 | 0.0 | 1.0 | 0.00 | 1.64 | 1.64 | 95 | 1003.1 |
| 20260507235022 | 43 | 328 | 0.0 | 0.0 | 0.00 | 1.64 | 1.64 | 95 | 1003.0 |
| 20260507234518 | 43 | 329 | 0.0 | 1.0 | 0.00 | 1.64 | 1.64 | 95 | 1002.9 |
| 20260507234015 | 43 | 329 | 0.0 | 1.0 | 0.00 | 1.64 | 1.64 | 95 | 1002.9 |
| 20260507230522 | 43 | 261 | 1.0 | 3.0 | 0.00 | 1.64 | 1.64 | 94 | 1002.9 |
| 20260507230019 | 43 | 282 | 1.0 | 3.0 | 0.00 | 1.64 | 1.64 | 94 | 1002.8 |
| 20260507225515 | 43 | 290 | 0.0 | 4.0 | 0.00 | 1.64 | 1.64 | 94 | 1002.9 |
| 20260507225034 | 43 | 212 | 2.0 | 4.0 | 0.00 | 1.64 | 1.64 | 94 | 1003.0 |
| 20260507224521 | 43 | 231 | 0.0 | 5.0 | 0.00 | 1.64 | 1.64 | 94 | 1003.0 |
| 20260507224015 | 43 | 271 | 1.0 | 5.0 | 0.00 | 1.64 | 1.64 | 94 | 1003.1 |
| 20260507223524 | 43 | 226 | 1.0 | 5.0 | 0.00 | 1.64 | 1.64 | 94 | 1003.0 |
| 20260507223019 | 44 | 236 | 2.0 | 5.0 | 0.00 | 1.64 | 1.64 | 94 | 1003.0 |
| 20260507222515 | 44 | 263 | 1.0 | 6.0 | 0.00 | 1.64 | 1.64 | 94 | 1002.9 |
| 20260507221526 | 44 | 252 | 2.0 | 6.0 | 0.00 | 1.64 | 1.64 | 94 | 1003.0 |
| 20260507221023 | 44 | 205 | 2.0 | 8.0 | 0.00 | 1.64 | 1.64 | 94 | 1003.2 |
| 20260507220528 | 44 | 296 | 2.0 | 5.0 | 0.00 | 1.64 | 1.64 | 94 | 1002.9 |
| 20260507220019 | 44 | 285 | 2.0 | 6.0 | 0.00 | 1.64 | 1.64 | 94 | 1003.0 |
| 20260507215516 | 44 | 245 | 1.0 | 6.0 | 0.00 | 1.64 | 1.64 | 94 | 1003.1 |
| 20260507214535 | 44 | 251 | 1.0 | 6.0 | 0.00 | 1.64 | 1.64 | 95 | 1003.0 |
| 20260507214022 | 44 | 156 | 2.0 | 6.0 | 0.00 | 1.64 | 1.64 | 94 | 1003.0 |
| 20260507213519 | 44 | 228 | 3.0 | 6.0 | 0.00 | 1.64 | 1.64 | 94 | 1003.0 |
| 20260507213027 | 44 | 286 | 2.0 | 5.0 | 0.00 | 1.64 | 1.64 | 94 | 1003.1 |
| 20260507210526 | 44 | 269 | 1.0 | 7.0 | 0.00 | 1.64 | 1.64 | 94 | 1003.4 |
| 20260507205523 | 44 | 250 | 2.0 | 6.0 | 0.00 | 1.64 | 1.64 | 94 | 1003.4 |
| 20260507205020 | 44 | 233 | 1.0 | 6.0 | 0.00 | 1.64 | 1.64 | 94 | 1003.3 |
| 20260507204515 | 44 | 292 | 2.0 | 6.0 | 0.00 | 1.64 | 1.64 | 94 | 1003.1 |
| 20260507204033 | 44 | 245 | 2.0 | 6.0 | 0.00 | 1.64 | 1.64 | 94 | 1003.1 |
| 20260507203520 | 45 | 249 | 2.0 | 7.0 | 0.00 | 1.64 | 1.64 | 94 | 1003.2 |
| 20260507203027 | 45 | 110 | 2.0 | 8.0 | 0.00 | 1.64 | 1.64 | 94 | 1003.2 |
| 20260507201517 | 45 | 297 | 2.0 | 12.0 | 0.00 | 1.64 | 1.64 | 94 | 1003.4 |
| 20260507201035 | 45 | 250 | 4.0 | 12.0 | 0.00 | 1.64 | 1.64 | 94 | 1003.5 |
| 20260507200522 | 45 | 217 | 3.0 | 8.0 | 0.00 | 1.64 | 1.64 | 94 | 1003.6 |
| 20260507200015 | 45 | 248 | 3.0 | 8.0 | 0.00 | 1.64 | 1.64 | 94 | 1003.7 |
| 20260507193515 | 46 | 142 | 3.0 | 12.0 | 0.02 | 1.64 | 1.64 | 94 | 1003.4 |
| 20260507192526 | 46 | 223 | 4.0 | 11.0 | 0.03 | 1.64 | 1.64 | 94 | 1003.6 |
| 20260507191519 | 47 | 282 | 1.0 | 9.0 | 0.04 | 1.64 | 1.64 | 94 | 1003.3 |
| 20260507191016 | 47 | 239 | 3.0 | 11.0 | 0.04 | 1.64 | 1.64 | 95 | 1003.3 |
| 20260507190015 | 47 | 127 | 2.0 | 9.0 | 0.04 | 1.63 | 1.63 | 94 | 1002.2 |
| 20260507184019 | 48 | 98 | 6.0 | 10.0 | 0.13 | 1.62 | 1.62 | 94 | 1002.1 |
| 20260507183543 | 48 | 191 | 5.0 | 9.0 | 0.15 | 1.62 | 1.62 | 95 | 1003.1 |
| 20260507180524 | 48 | 269 | 2.0 | 5.0 | 0.27 | 1.59 | 1.59 | 95 | 1004.6 |
| 20260507180030 | 48 | 231 | 2.0 | 6.0 | 0.28 | 1.58 | 1.58 | 95 | 1004.7 |
| 20260507175515 | 48 | 234 | 3.0 | 7.0 | 0.29 | 1.57 | 1.57 | 95 | 1004.3 |
| 20260507174515 | 48 | 248 | 2.0 | 5.0 | 0.28 | 1.52 | 1.52 | 95 | 1005.5 |
| 20260507171020 | 48 | 231 | 2.0 | 5.0 | 0.41 | 1.34 | 1.34 | 94 | 1005.7 |
| 20260507170516 | 48 | 243 | 2.0 | 5.0 | 0.53 | 1.31 | 1.31 | 95 | 1005.5 |
| 20260507165518 | 48 | 251 | 2.0 | 6.0 | 0.73 | 1.28 | 1.28 | 95 | 1005.2 |
| 20260507165016 | 48 | 229 | 3.0 | 6.0 | 0.79 | 1.26 | 1.26 | 95 | 1005.3 |
| 20260507164522 | 48 | 230 | 2.0 | 6.0 | 0.82 | 1.24 | 1.24 | 95 | 1005.3 |
| 20260507164022 | 48 | 231 | 3.0 | 6.0 | 0.81 | 1.22 | 1.22 | 95 | 1005.6 |
| 20260507163518 | 47 | 297 | 2.0 | 4.0 | 0.77 | 1.17 | 1.17 | 94 | 1006.0 |
| 20260507163015 | 47 | 157 | 2.0 | 6.0 | 0.76 | 1.16 | 1.16 | 94 | 1006.1 |
| 20260507162524 | 47 | 321 | 1.0 | 10.0 | 0.75 | 1.15 | 1.15 | 94 | 1006.1 |
| 20260507162023 | 47 | 347 | 2.0 | 10.0 | 0.72 | 1.11 | 1.11 | 94 | 1006.3 |
| 20260507161519 | 48 | 314 | 3.0 | 10.0 | 0.64 | 1.02 | 1.02 | 95 | 1006.1 |
| 20260507161016 | 47 | 283 | 2.0 | 9.0 | 0.54 | 0.91 | 0.91 | 94 | 1005.8 |
| 20260507160021 | 48 | 266 | 3.0 | 10.0 | 0.32 | 0.66 | 0.66 | 94 | 1005.6 |
| 20260507153534 | 49 | 152 | 5.0 | 12.0 | 0.10 | 0.40 | 0.40 | 94 | 1005.2 |
| 20260507153019 | 49 | 258 | 6.0 | 12.0 | 0.11 | 0.40 | 0.40 | 94 | 1005.3 |
| 20260507152515 | 49 | 219 | 6.0 | 15.0 | 0.11 | 0.40 | 0.40 | 94 | 1005.5 |
| 20260507151515 | 49 | 169 | 6.0 | 18.0 | 0.10 | 0.38 | 0.38 | 94 | 1005.8 |
| 20260507151023 | 49 | 238 | 7.0 | 18.0 | 0.10 | 0.37 | 0.37 | 95 | 1005.9 |
| 20260507150520 | 49 | 143 | 6.0 | 15.0 | 0.09 | 0.35 | 0.35 | 95 | 1006.1 |
| 20260507150026 | 48 | 179 | 5.0 | 15.0 | 0.08 | 0.34 | 0.34 | 95 | 1006.3 |
| 20260507145523 | 48 | 30 | 5.0 | 14.0 | 0.07 | 0.33 | 0.33 | 95 | 1006.2 |
| 20260507145020 | 48 | 192 | 6.0 | 15.0 | 0.07 | 0.32 | 0.32 | 94 | 1006.3 |
| 20260507144516 | 48 | 148 | 7.0 | 16.0 | 0.09 | 0.32 | 0.32 | 94 | 1006.4 |
| 20260507144023 | 47 | 167 | 6.0 | 19.0 | 0.09 | 0.31 | 0.31 | 94 | 1006.4 |
| 20260507143522 | 47 | 190 | 7.0 | 19.0 | 0.10 | 0.30 | 0.30 | 94 | 1006.5 |
| 20260507143019 | 48 | 179 | 5.0 | 13.0 | 0.11 | 0.29 | 0.29 | 94 | 1006.7 |
| 20260507142516 | 48 | 191 | 5.0 | 15.0 | 0.11 | 0.29 | 0.29 | 94 | 1006.7 |
| 20260507142023 | 48 | 157 | 7.0 | 17.0 | 0.12 | 0.29 | 0.29 | 94 | 1006.8 |
| 20260507141520 | 48 | 200 | 8.0 | 17.0 | 0.11 | 0.28 | 0.28 | 94 | 1007.0 |
| 20260507141032 | 48 | 142 | 7.0 | 17.0 | 0.11 | 0.27 | 0.27 | 94 | 1007.3 |
| 20260507140523 | 49 | 146 | 6.0 | 15.0 | 0.10 | 0.26 | 0.26 | 94 | 1007.3 |
| 20260507140022 | 49 | 181 | 8.0 | 14.0 | 0.11 | 0.26 | 0.26 | 94 | 1007.4 |
| 20260507135524 | 49 | 176 | 6.0 | 16.0 | 0.12 | 0.25 | 0.25 | 94 | 1007.5 |
| 20260507135015 | 49 | 217 | 8.0 | 16.0 | 0.13 | 0.24 | 0.24 | 94 | 1007.6 |
| 20260507134522 | 48 | 149 | 7.0 | 17.0 | 0.13 | 0.23 | 0.23 | 94 | 1007.7 |
| 20260507134019 | 48 | 248 | 8.0 | 17.0 | 0.12 | 0.22 | 0.22 | 94 | 1007.8 |
| 20260507133515 | 48 | 230 | 6.0 | 14.0 | 0.10 | 0.20 | 0.20 | 94 | 1007.8 |